Wheeling, WV

1:53 AM EDT on September 22, 2017 (GMT -0400)
Wheeling-Ohio County

Weather History for KHLG - October, 2012

Change the Weather History Date:

Wednesday, October 3, 2012

  Actual Average Record
Temperature  
Mean Temperature 67 °F 58 °F  
Max Temperature 74 °F 68 °F 87 °F (1951)
Min Temperature 60 °F 48 °F 30 °F (2003)
Degree Days  
Heating Degree Days 0 8  
Month to date heating degree days 13 23  
Since 1 July heating degree days 138 124  
Cooling Degree Days 2    
Month to date cooling degree days 4  
Year to date cooling degree days 978  
Growing Degree Days 17 (Base 50)    
Moisture  
Dew Point 61 °F    
Average Humidity 79    
Maximum Humidity 100    
Minimum Humidity 57    
Precipitation  
Precipitation 0.01 in 0.08 in 0.75 in (1998)
Month to date precipitation 0.14 0.27  
Sea Level Pressure  
Sea Level Pressure 30.03 in    
Wind  
Wind Speed 6 mph (SW)    
Max Wind Speed 15 mph    
Max Gust Speed 20 mph    
Visibility 9 miles    
Events      
T = Trace of Precipitation, MM = Missing Value Source: NWS Daily Summary

Daily Weather History Graph

Daily Weather History Graph

Search for Another Location

Airport or City:

Trip Planner

Search our weather history database for the weather conditions in past years. The results will help you decide how hot, cold, wet, or windy it might be!

Date:

Astronomy

Oct. 03, 2012 Rise Set
Actual Time 7:21 AM EDT 7:00 PM EDT
Civil Twilight 6:54 AM EDT 7:27 PM EDT
Nautical Twilight 6:22 AM EDT 7:59 PM EDT
Astronomical Twilight 5:51 AM EDT 8:30 PM EDT
Moon 8:51 PM EDT (10/3) 10:43 AM EDT (10/3)
Length of Visible Light 12h 33m
Length of Day
11h 39m
Waning Gibbous, 89% of the Moon is Illuminated
Oct 3
Waning Gibbous
Oct 8
Last Quarter
Oct 15
New
Oct 21
First Quarter
Oct 29
Full

Hourly Weather History & Observations

Time (EDT) Temp. Dew Point Humidity Pressure Visibility Wind Dir Wind Speed Gust Speed Precip Events Conditions
12:53 AM 66.9 °F 64.9 °F 93% 29.89 in 4.0 mi West 11.5 mph 17.3 mph N/A   Partly Cloudy
12:56 AM 64.4 °F 64.4 °F 100% 29.90 in 1.8 mi WNW 11.5 mph 17.3 mph N/A   Scattered Clouds
1:06 AM 66.2 °F 64.4 °F 94% 29.90 in 3.0 mi NW 4.6 mph - N/A   Mostly Cloudy
1:16 AM 66.2 °F 64.4 °F 94% 29.90 in 9.0 mi Calm Calm - N/A   Overcast
1:53 AM 66.9 °F 64.9 °F 93% 29.90 in 10.0 mi SSW 3.5 mph - N/A   Overcast
2:07 AM 66.2 °F 64.4 °F 94% 29.92 in 5.0 mi West 3.5 mph - N/A   Overcast
2:53 AM 66.9 °F 66.0 °F 97% 29.93 in 10.0 mi SSW 4.6 mph - N/A   Overcast
3:53 AM 66.9 °F 66.0 °F 97% 29.95 in 10.0 mi SSW 4.6 mph - 0.00 in   Overcast
4:53 AM 66.9 °F 64.9 °F 93% 29.97 in 10.0 mi WSW 4.6 mph - N/A   Overcast
5:53 AM 66.9 °F 63.0 °F 87% 30.00 in 10.0 mi SW 8.1 mph - N/A   Overcast
6:53 AM 66.0 °F 62.1 °F 87% 30.02 in 10.0 mi SW 8.1 mph - N/A   Overcast
7:53 AM 64.9 °F 62.1 °F 90% 30.05 in 10.0 mi WSW 5.8 mph - N/A   Mostly Cloudy
8:53 AM 64.9 °F 62.1 °F 90% 30.07 in 10.0 mi WSW 5.8 mph - N/A   Mostly Cloudy
9:53 AM 66.0 °F 62.1 °F 87% 30.09 in 10.0 mi SW 3.5 mph - 0.01 in   Mostly Cloudy
10:53 AM 68.0 °F 61.0 °F 78% 30.10 in 10.0 mi South 6.9 mph - N/A   Mostly Cloudy
11:53 AM 69.1 °F 60.1 °F 73% 30.09 in 10.0 mi SSW 10.4 mph - N/A   Partly Cloudy
12:53 PM 71.1 °F 60.1 °F 68% 30.09 in 10.0 mi SSW 10.4 mph - N/A   Scattered Clouds
1:53 PM 72.0 °F 59.0 °F 64% 30.08 in 10.0 mi South 12.7 mph - N/A   Mostly Cloudy
2:53 PM 72.0 °F 57.9 °F 61% 30.07 in 10.0 mi SSW 8.1 mph 19.6 mph N/A   Mostly Cloudy
3:53 PM 72.0 °F 57.0 °F 59% 30.07 in 10.0 mi SW 9.2 mph - N/A   Overcast
4:53 PM 72.0 °F 55.9 °F 57% 30.08 in 10.0 mi SW 9.2 mph - N/A   Mostly Cloudy
5:53 PM 72.0 °F 55.0 °F 55% 30.09 in 10.0 mi SW 10.4 mph - N/A   Partly Cloudy
6:53 PM 69.1 °F 55.0 °F 61% 30.10 in 10.0 mi SW 4.6 mph - N/A   Clear
7:53 PM 66.9 °F 55.0 °F 66% 30.12 in 10.0 mi SW 5.8 mph - N/A   Clear
9:53 PM 62.1 °F 57.0 °F 84% 30.14 in 10.0 mi WNW 6.9 mph - N/A   Clear
11:53 PM 60.1 °F 57.0 °F 90% 30.17 in 10.0 mi ESE 3.5 mph - N/A   Clear